Regional Weather Roundup
Issued by NWS

Home | Current Version | Previous Version | Text Only | Print | Product List | Glossary On
Versions: 1 2 3 4 5 6 7 8 9 10 11 12 13 14 15 16 17 18 19 20 21 22 23 24 25 26 27
000
ASCA42 TJSJ 280310
RWRPR
PUERTO RICO/U.S. VIRGIN ISLANDS HOURLY WEATHER ROUNDUP
NATIONAL WEATHER SERVICE SAN JUAN PR
1100 PM AST FRI MAY 27 2016

PRZ001-004-280400-
PUERTO RICO

CITY           SKY/WX    TMP DP  RH WIND       PRES   REMARKS
SAN JUAN LMM   MOCLDY    79  75  89 E3        30.00R
PONCE          PTCLDY    81  73  78 E6        29.98
AGUADILLA      CLOUDY    79  75  89 CALM      30.00R
CEIBA          CLEAR     81  77  89 E6        30.02R
$$

PRZ006-007-280400-
U.S. VIRGIN ISLANDS

CITY           SKY/WX    TMP DP  RH WIND       PRES   REMARKS
CHARLOTTE AMA  PTCLDY    84  77  79 E13       29.99R HX  94
CHRISTIANSTED  PTCLDY    81  75  83 E8        30.00R
$$

HOURLY WEATHER ROUNDUP FOR THE NEWS MEDIA

CITY           SKY/WX    TMP DP  RH WIND       PRES   REMARKS
ORLANDO        CLEAR     76  67  73 NE6       30.02R
NEW YORK       PTCLDY    67  59  75 S13       30.08R
NEWARK         MOCLDY    78  65  63 S14       30.04S
CHICAGO        LGT RAIN  71  65  81 S17       29.87R
HARTFORD       CLEAR     66  54  65 SW12      30.07F
BOSTON         PTCLDY    71  62  73 SW12      30.03F
DALLAS         PTCLDY    70  64  81 S13       29.79R
PHILADELPHIA   PTCLDY    75  64  68 S7        30.09S
LOS ANGELES    MOCLDY    61  55  81 W8        29.88R
WASHINGTON DC  MOCLDY    79  67  66 W3        30.09R



USA.gov is the U.S. government's official web portal to all federal, state and local government web resources and services.